[[[{"header":{"parameterUnit":"kt","parameterCategory":2,"dx":1,"dy":1,"la1":30.253999710083008,"la2":30.299108505249023,"lo1":-89.0895004272461,"lo2":-89.04439544677734,"nx":28,"ny":28,"refTime":"2022-09-27T15:00:00:Z","depth":0,"parameterNumber":1,"parameterNumberName":"U-component_of_WINDS"},"data":[-9.5398,-9.5599,-9.559,-9.5814,-9.5844,-9.5995,-9.6046,-9.6111,-9.6159,-9.6337,-9.6437,-9.6447,-9.649,-9.6606,-9.6713,-9.6715,-9.6762,-9.684,-9.6829,-9.6488,-9.644,-9.6394,-9.6347,-9.685,-9.6851,-9.7185,-9.7188,-9.719,-9.5149,-9.5181,-9.5296,-9.5402,-9.5501,-9.542,-9.5497,-9.5585,-9.5722,-9.5782,-9.5881,-9.6036,-9.6157,-9.6173,-9.6287,-9.638,-9.6348,-9.6412,-9.6406,-9.6415,-9.6049,-9.5999,-9.6435,-9.6435,-9.6435,-9.6435,-9.6435,-9.6435,-9.4693,-9.4814,-9.4872,-9.4998,-9.5048,-9.5118,-9.5231,-9.524,-9.5353,-9.5472,-9.5436,-9.5591,-9.5648,-9.578,-9.5821,-9.594,-9.5868,-9.5934,-9.5951,-9.5969,-9.5992,-9.5515,-9.5958,-9.5957,-9.5956,-9.5955,-9.5954,0,-9.4357,-9.4341,-9.4451,-9.4559,-9.465,-9.4732,-9.4805,-9.4874,-9.4834,-9.4928,-9.5063,-9.5139,-9.5289,-9.5414,-9.5518,-9.5547,-9.5473,-9.5462,-9.5508,-9.5531,-9.5537,-9.5539,-9.4945,-9.545,-9.5446,-9.5443,-9.544,-9.5439,-9.3899,-9.404,-9.4096,-9.4175,-9.4212,-9.4339,-9.4413,-9.4367,-9.4447,-9.4529,-9.4637,-9.4761,-9.4859,-9.5076,-9.5084,-9.5195,-9.5161,-9.5355,-9.5177,-9.5191,-9.5167,-9.5161,-9.5175,-9.5392,-9.5398,-9.5403,-9.5407,0,-9.3643,-9.3625,-9.3841,-9.3881,-9.3895,-9.4045,-9.4079,-9.4196,-9.4191,-9.4352,-9.4387,-9.438,-9.4513,-9.4489,-9.4635,-9.4618,-9.4865,-9.4826,-9.4845,-9.4837,-9.5011,-9.4996,-9.5574,-9.5648,-9.5123,-9.5128,-9.5133,0,-9.3247,-9.3434,-9.3397,-9.3523,-9.3728,-9.3676,-9.3881,-9.3897,-9.3945,-9.4072,-9.3982,-9.4103,-9.4052,-9.4169,-9.4145,-9.4341,-9.4368,-9.4368,-9.436,-9.4378,-9.4379,-9.4422,-9.4399,-9.4332,-9.4329,-9.4326,-9.4324,0,-9.285,-9.3047,-9.3251,-9.3293,-9.3355,-9.3451,-9.3481,-9.3534,-9.3607,-9.3696,-9.3742,-9.3849,-9.3909,-9.3993,-9.3962,-9.3842,-9.42,-9.4029,-9.4201,-9.4202,-9.4284,-9.428,-9.4795,-9.4321,-9.432,-9.4319,-9.4318,0,-9.2528,-9.2621,-9.2917,-9.2966,-9.302,-9.3153,-9.3256,-9.3365,-9.3428,-9.3421,-9.349,-9.3428,-9.3596,-9.3429,-9.366,-9.3514,-9.3577,-9.3591,-9.3603,-9.362,-9.3434,-9.3732,-9.4221,-9.4273,-9.3631,-9.3625,-9.362,0,-9.208,-9.2375,-9.2333,-9.2616,-9.2748,-9.2639,-9.2786,-9.2844,-9.2848,-9.296,-9.2962,-9.3091,-9.296,-9.2997,-9.3114,-9.3123,-9.3313,-9.3096,-9.326,-9.3267,-9.325,-9.37,-9.3781,-9.4116,-9.3546,-9.3554,-9.356,0,-9.1731,-9.1804,-9.1857,-9.1904,-9.1973,-9.2083,-9.2251,-9.2367,-9.2444,-9.2518,-9.2659,-9.2837,-9.2747,-9.2809,-9.2769,-9.2893,-9.3182,-9.2779,-9.278,-9.2855,-9.3506,-9.3582,-9.3639,-9.3128,-9.3137,-9.3144,-9.3501,0,-9.1254,-9.1398,-9.154,-9.1645,-9.1726,-9.19,-9.1875,-9.1963,-9.1917,-9.1916,-9.2121,-9.2162,-9.228,-9.2336,-9.2292,-9.2582,-9.253,-9.2432,-9.227,-9.2564,-9.2681,-9.2729,-9.2097,-9.2092,-9.2088,-9.2085,0,0,-9.0832,-9.1037,-9.0986,-9.1147,-9.1213,-9.1097,-9.1287,-9.1336,-9.144,-9.1488,-9.1396,-9.1655,-9.1692,-9.1944,-9.2034,-9.208,-9.2131,-9.2029,-9.2423,-9.2461,-9.2496,-9.2622,-9.2672,-9.2077,-9.2076,-9.2074,-9.2073,0,-9.0653,-9.0693,-9.0881,-9.093,-9.1001,-9.0991,-9.1036,-9.1085,-9.1094,-9.1294,-9.1196,-9.1315,-9.1523,-9.1577,-9.1631,-9.1997,-9.1918,-9.2034,-9.2241,-9.2382,-9.2426,-9.2464,-9.2597,-9.2645,-9.2063,-9.2063,-9.2064,0,-9.0307,-9.0343,-9.0431,-9.0572,-9.0618,-9.0756,-9.0579,-9.0732,-9.0834,-9.07,-9.0901,-9.092,-9.0989,-9.1229,-9.1336,-9.1256,-9.1726,-9.1572,-9.1597,-9.161,-9.1745,-9.1798,-9.1844,-9.1232,-9.1229,-9.1227,0,0,-9.0156,-9.0288,-9.0313,-9.0532,-9.0567,-9.0555,-9.0625,-9.0587,-9.0651,-9.0677,-9.0701,-9.0767,-9.0886,-9.0967,-9.1078,-9.1345,-9.1356,-9.1471,-9.151,-9.1542,-9.1572,-9.1716,-9.1768,-9.1216,-9.1216,-9.1216,0,0,-9.0084,-9.0121,-9.0063,-9.0314,-9.0378,-9.0417,-9.0552,-9.0482,-9.0579,-9.0557,-9.0499,-9.0514,-9.0738,-9.0761,-9.0623,-9.102,-9.0859,-9.0891,-9.0997,-9.1046,-9.1085,-9.1076,-9.0448,0,0,0,0,0,-8.9888,-9.0116,-9.0063,-9.0101,-9.028,-9.0446,-9.0469,-9.0426,-9.0313,-9.0421,-9.043,-9.0339,-9.0675,-9.0552,-9.059,-9.0745,-9.1081,-9.1105,-9.1127,-9.1327,-9.1378,-9.1422,0,0,0,0,0,0,-8.9903,-8.995,-9.0057,-9.0106,-9.0146,-9.0437,-9.0237,-9.0232,-9.0301,-9.0281,-9.034,-9.0341,-9.0308,-9.0529,-9.0564,-9.0713,-9.0436,-9.109,-9.1111,-9.1129,-9.1344,-9.1386,-9.1423,0,0,0,0,0,-8.9914,-8.9952,-9.0249,-9.0103,-9.0137,-9.0135,-9.0228,-9.0222,-9.0275,-9.0289,-9.0286,-9.0237,-9.0313,-9.034,-9.055,-9.0698,-9.0411,-9.0425,-9.1103,-9.1119,-9.1134,-9.1365,0,0,0,0,0,0,-8.9922,-8.9947,-9.0255,-9.0264,-9.0013,-9.0118,-9.0133,-9.0214,-9.0277,-9.0278,-9.0181,-9.0165,-9.032,-9.0339,-9.0361,-9.0695,-9.0391,-9.0405,-9.0413,-9.1116,-9.1128,-9.1139,0,0,0,0,0,0,-8.9927,-8.9956,-9.026,-9.0149,-9.0145,-9.0102,-9.0116,-9.0287,-9.028,-9.0166,-9.0154,-9.0173,-9.0288,-9.034,-9.0356,-9.0625,-9.0375,-9.0388,-9.0397,-9.0403,-9.1126,-9.1136,0,0,0,0,0,0,-8.9938,-8.9963,-9.0147,-9.0144,-9.0139,-9.0236,-9.0253,-9.0438,-9.0185,-9.0165,-9.0161,-9.015,-9.0292,-9.0306,-9.0354,-9.0617,-9.0623,-9.0376,-9.0385,-9.0391,-9.0395,0,0,0,0,0,0,0,-8.9947,-8.9791,-9.0203,-9.0139,-9.0135,-9.0346,-9.0349,-9.0351,-9.0183,-9.0173,-9.0164,-9.0155,-9.0301,-9.0315,-9.033,-9.061,0,0,-9.0374,-9.0381,0,0,0,0,0,0,0,0,-8.9779,-8.9788,-9.0203,-9.0205,-9.0206,-9.0347,-9.0349,-9.035,-9.0181,-9.0174,-9.0166,-9.0159,-9.0305,-9.0316,-9.0328,0,0,0,0,0,0,0,0,0,0,0,0,0,0,0,-9.0203,-9.0205,0,-9.0347,-9.0348,-9.035,-9.018,-9.0174,-9.0168,-9.0162,-9.0308,-9.0317,-9.0327,0,0,0,0,0,0,0,0,0,0,0,0,0,0,0,0,0,0,0,0,0,0,0,0,0,0,0,0,0,0,0,0,0,0,0,0,0,0,0,0,0,0,0,0,0,0,0,0,0,0,0,0,0,0,0,0,0,0,0,0,0,0,0,0,0,0,0,0,0]}],[{"header":{"parameterUnit":"kt","parameterCategory":2,"dx":1,"dy":1,"la1":30.253999710083008,"la2":30.299108505249023,"lo1":-89.0895004272461,"lo2":-89.04439544677734,"nx":28,"ny":28,"refTime":"2022-09-27T15:00:00:Z","depth":0,"parameterNumber":2,"parameterNumberName":"V-component_of_WINDS"},"data":[-16.6602,-16.6819,-16.6811,-16.7052,-16.7084,-16.7246,-16.73,-16.7368,-16.7419,-16.7606,-16.7711,-16.7719,-16.7761,-16.788,-16.799,-16.799,-16.8038,-16.8123,-16.8108,-16.7742,-16.769,-16.7641,-16.7591,-16.8133,-16.8134,-16.8489,-16.8492,-16.8495,-16.6337,-16.6373,-16.6498,-16.6613,-16.6719,-16.6633,-16.6714,-16.6808,-16.6953,-16.7016,-16.7118,-16.728,-16.7405,-16.7417,-16.7534,-16.763,-16.7594,-16.7662,-16.7655,-16.7663,-16.7271,-16.7219,-16.769,-16.769,-16.769,-16.769,-16.7689,-16.7689,-16.5851,-16.5981,-16.6046,-16.6181,-16.6235,-16.6311,-16.6431,-16.644,-16.6559,-16.6683,-16.6643,-16.6805,-16.6862,-16.6994,-16.7034,-16.7157,-16.7077,-16.7147,-16.7165,-16.7184,-16.7208,-16.67,-16.7175,-16.7173,-16.7172,-16.7171,-16.717,0,-16.5493,-16.5477,-16.5596,-16.5713,-16.581,-16.5897,-16.5975,-16.6048,-16.6003,-16.6102,-16.6244,-16.6323,-16.6476,-16.6605,-16.6709,-16.6735,-16.665,-16.6639,-16.6687,-16.6711,-16.672,-16.6719,-16.6082,-16.6625,-16.662,-16.6617,-16.6614,-16.6613,-16.5003,-16.5156,-16.5216,-16.5301,-16.5341,-16.5477,-16.5555,-16.5504,-16.5588,-16.5672,-16.5787,-16.5916,-16.6016,-16.624,-16.6241,-16.6354,-16.6314,-16.6523,-16.633,-16.6347,-16.6319,-16.6311,-16.6326,-16.6562,-16.6569,-16.6574,-16.6578,0,-16.4729,-16.4711,-16.4942,-16.4986,-16.5001,-16.5161,-16.5196,-16.532,-16.5312,-16.5482,-16.5518,-16.5505,-16.5642,-16.561,-16.5758,-16.5736,-16.5995,-16.5952,-16.5976,-16.5966,-16.6151,-16.6135,-16.6755,-16.6833,-16.6269,-16.6275,-16.6279,0,-16.4304,-16.4505,-16.4466,-16.4601,-16.4821,-16.4765,-16.4982,-16.4997,-16.5046,-16.5179,-16.5079,-16.5205,-16.5143,-16.5264,-16.5232,-16.5437,-16.5463,-16.5459,-16.5449,-16.547,-16.5471,-16.5512,-16.5486,-16.5416,-16.5413,-16.5411,-16.5408,0,-16.3878,-16.409,-16.4309,-16.4354,-16.4419,-16.4521,-16.4552,-16.4605,-16.4681,-16.4772,-16.482,-16.4929,-16.499,-16.5075,-16.5033,-16.4904,-16.5282,-16.5095,-16.5278,-16.528,-16.5364,-16.536,-16.5916,-16.5404,-16.5403,-16.5402,-16.5401,0,-16.3532,-16.3631,-16.3951,-16.4002,-16.4059,-16.4201,-16.4308,-16.4422,-16.4485,-16.4475,-16.4546,-16.4474,-16.465,-16.4468,-16.4708,-16.4552,-16.4616,-16.4627,-16.4639,-16.4654,-16.4451,-16.4771,-16.5303,-16.5358,-16.4666,-16.466,-16.4655,0,-16.305,-16.3367,-16.3321,-16.3624,-16.3766,-16.3646,-16.3802,-16.3861,-16.3861,-16.3978,-16.3974,-16.4107,-16.3964,-16.4001,-16.4124,-16.4126,-16.4329,-16.4097,-16.4263,-16.427,-16.4253,-16.4742,-16.4831,-16.519,-16.4576,-16.4584,-16.459,0,-16.2673,-16.2751,-16.2809,-16.2857,-16.2929,-16.3045,-16.3225,-16.3345,-16.3426,-16.3502,-16.365,-16.3834,-16.3733,-16.3795,-16.3746,-16.3877,-16.419,-16.3751,-16.3751,-16.3832,-16.4532,-16.4616,-16.4677,-16.4128,-16.4137,-16.4145,-16.4527,0,-16.2158,-16.2313,-16.2466,-16.2577,-16.2662,-16.2849,-16.2817,-16.291,-16.2857,-16.2852,-16.3067,-16.3104,-16.3222,-16.3281,-16.3229,-16.3538,-16.3481,-16.3371,-16.3191,-16.3512,-16.3637,-16.3688,-16.3008,-16.3002,-16.2998,-16.2994,0,0,-16.1701,-16.1922,-16.1865,-16.2039,-16.2107,-16.1979,-16.2182,-16.2232,-16.2336,-16.2385,-16.2285,-16.255,-16.2584,-16.2848,-16.2945,-16.2993,-16.3044,-16.2933,-16.3359,-16.34,-16.3438,-16.3573,-16.3626,-16.2985,-16.2984,-16.2982,-16.2981,0,-16.1507,-16.155,-16.1753,-16.1804,-16.1877,-16.1862,-16.1911,-16.1958,-16.1964,-16.2175,-16.2063,-16.2187,-16.24,-16.2451,-16.2505,-16.2901,-16.2808,-16.2939,-16.3165,-16.3313,-16.3361,-16.3402,-16.3544,-16.3596,-16.2969,-16.297,-16.297,0,-16.1131,-16.1169,-16.1263,-16.1413,-16.1459,-16.1606,-16.141,-16.1573,-16.1681,-16.1527,-16.1738,-16.1753,-16.1817,-16.2071,-16.2183,-16.2094,-16.2595,-16.2429,-16.2458,-16.2469,-16.2611,-16.2668,-16.2718,-16.2053,-16.205,-16.2047,0,0,-16.0967,-16.1111,-16.1133,-16.1369,-16.1406,-16.1386,-16.146,-16.1415,-16.1478,-16.1504,-16.1522,-16.1584,-16.1707,-16.1789,-16.1902,-16.2185,-16.2193,-16.2318,-16.2361,-16.2397,-16.2428,-16.2579,-16.2635,-16.2036,-16.2036,-16.2035,0,0,-16.0887,-16.0924,-16.0861,-16.1131,-16.1197,-16.1232,-16.1376,-16.1297,-16.1396,-16.1371,-16.1298,-16.1311,-16.1547,-16.1566,-16.1417,-16.1836,-16.1659,-16.1693,-16.1816,-16.187,-16.1913,-16.1903,-16.1219,0,0,0,0,0,-16.0672,-16.092,-16.0862,-16.0902,-16.1089,-16.1265,-16.1287,-16.1236,-16.1112,-16.1227,-16.1229,-16.1125,-16.1471,-16.1338,-16.1377,-16.1543,-16.1889,-16.1915,-16.194,-16.2164,-16.2221,-16.2269,0,0,0,0,0,0,-16.0688,-16.0738,-16.0855,-16.0902,-16.0943,-16.1255,-16.1034,-16.1026,-16.1098,-16.1076,-16.1128,-16.1126,-16.1083,-16.1314,-16.135,-16.1509,-16.1207,-16.1899,-16.1921,-16.1941,-16.2184,-16.223,-16.227,0,0,0,0,0,-16.07,-16.074,-16.1054,-16.0897,-16.0933,-16.0924,-16.1024,-16.1016,-16.107,-16.1074,-16.1069,-16.1025,-16.1089,-16.1115,-16.1335,-16.1494,-16.1181,-16.1195,-16.1913,-16.1931,-16.1946,-16.2207,0,0,0,0,0,0,-16.0709,-16.0733,-16.106,-16.1069,-16.08,-16.0905,-16.092,-16.1008,-16.1062,-16.1061,-16.0966,-16.0947,-16.1096,-16.1115,-16.1136,-16.1492,-16.116,-16.1174,-16.1183,-16.1927,-16.194,-16.1953,0,0,0,0,0,0,-16.071,-16.0741,-16.1065,-16.0945,-16.094,-16.0888,-16.0902,-16.1079,-16.1064,-16.095,-16.0937,-16.0957,-16.1062,-16.1117,-16.1132,-16.1412,-16.1144,-16.1158,-16.1167,-16.1173,-16.1938,-16.1949,0,0,0,0,0,0,-16.0722,-16.0749,-16.0942,-16.0939,-16.0933,-16.1028,-16.1043,-16.1236,-16.0966,-16.095,-16.094,-16.0928,-16.1067,-16.1082,-16.1131,-16.1404,-16.141,-16.1145,-16.1154,-16.116,-16.1165,0,0,0,0,0,0,0,-16.0732,-16.057,-16.1008,-16.0933,-16.0928,-16.1151,-16.1153,-16.1156,-16.0964,-16.0953,-16.0943,-16.0933,-16.1068,-16.1083,-16.1097,-16.1398,0,0,-16.1143,-16.115,0,0,0,0,0,0,0,0,-16.0557,-16.0567,-16.1009,-16.1011,-16.1012,-16.1151,-16.1153,-16.1155,-16.0962,-16.0954,-16.0945,-16.0937,-16.1072,-16.1084,-16.1096,0,0,0,0,0,0,0,0,0,0,0,0,0,0,0,-16.1009,-16.101,0,-16.1151,-16.1153,-16.1155,-16.0961,-16.0954,-16.0947,-16.0941,-16.1075,-16.1085,-16.1095,0,0,0,0,0,0,0,0,0,0,0,0,0,0,0,0,0,0,0,0,0,0,0,0,0,0,0,0,0,0,0,0,0,0,0,0,0,0,0,0,0,0,0,0,0,0,0,0,0,0,0,0,0,0,0,0,0,0,0,0,0,0,0,0,0,0,0,0,0]}]]]